Location: Grasslands National Park East Block
(49.0708°N, 106.5295°W)
Time: 02:13:30
(UTC-06:00)

Vanguard 1 Rocket - Pass Details

Date: 25 September 2019
Orbit: 650 x 4226 km, 34.3° (Epoch: 13 October)

Event Time Altitude Azimuth Distance (km) Brightness Sun altitude
Rises 22:12:46 0° 272° (W) 7,576 12.8 -30.5°
Reaches altitude 10° 22:19:22 10° 264° (W) 5,982 12.0 -31.3°
Maximum altitude 22:32:26 30° 213° (SSW) 3,205 10.0 -32.9°
Enters shadow 22:34:10 29° 199° (SSW) 3,064 9.8 -33.1°
Drops below altitude 10° 22:40:16 10° 156° (SSE) 3,517 - -33.8°
Sets 22:43:01 0° 145° (SE) 4,133 - -34.1°
